FW3260 Weather Reports


Display with metric or nautical units.
time (UTC)temp
F
wind
direction
speed
MPH
gust
MPH
rain 1hr
in
rain 24hr
in
rain mn
in
humidity
%
barometer
mb
20260905154018 71 293 1.0 4.0 0.00 0.00 0.00 74 1011.3
20260905153018 71 113 2.0 6.0 0.00 0.00 0.00 74 1011.4
20260905152018 71 113 3.0 7.0 0.00 0.00 0.00 74 1011.4
20260905151018 71 90 2.0 7.0 0.00 0.00 0.00 75 1011.3
20260905150018 71 225 2.0 5.0 0.00 0.00 0.00 76 1011.3
20260905145018 71 338 2.0 5.0 0.00 0.00 0.00 75 1011.3
20260905144018 70 113 3.0 8.0 0.00 0.00 0.00 77 1011.2
20260905143018 70 0.0 4.0 0.00 0.00 0.00 77 1011.2
20260905142018 70 248 1.0 4.0 0.00 0.00 0.00 77 1011.2
20260905141018 70 68 1.0 2.0 0.00 0.00 0.00 78 1011.3
20260905140038 70 68 2.0 8.0 0.00 0.00 0.00 76 1011.4
20260905135018 70 248 2.0 8.0 0.00 0.00 0.00 76 1011.4
20260905134018 70 135 2.0 4.0 0.00 0.00 0.00 76 1011.4
20260905133017 70 90 1.0 4.0 0.00 0.00 0.00 77 1011.2
20260905132018 70 338 1.0 4.0 0.00 0.00 0.00 77 1011.2
20260905131018 70 90 1.0 5.0 0.00 0.00 0.00 76 1011.1
20260905130018 70 45 2.0 5.0 0.00 0.00 0.00 77 1011.0
20260905125018 69 315 1.0 3.0 0.00 0.00 0.00 78 1010.9
20260905124037 69 203 2.0 6.0 0.00 0.00 0.00 78 1010.9
20260905123018 68 45 1.0 3.0 0.00 0.00 0.00 81 1010.7
20260905122018 67 293 2.0 7.0 0.00 0.00 0.00 83 1010.7
20260905121017 66 0.0 3.0 0.00 0.00 0.00 85 1010.5
20260905120017 65 0.0 4.0 0.00 0.01 0.00 87 1010.6
20260905115017 63 0.0 2.0 0.00 0.01 0.00 88 1010.6
20260905114017 62 293 1.0 3.0 0.00 0.01 0.00 89 1010.4
20260905113020 62 0.0 3.0 0.00 0.01 0.00 88 1010.3
20260905112019 62 0.0 1.0 0.00 0.01 0.00 88 1010.2
20260905111040 61 0.0 3.0 0.00 0.01 0.00 88 1010.4
20260905110037 61 0.0 1.0 0.00 0.01 0.00 88 1010.2
20260905105518 61 0.0 2.0 0.00 0.01 0.00 88 1010.1
20260905104559 61 0.0 0.0 0.00 0.01 0.00 88 1010.0
20260905103518 61 0.0 1.0 0.00 0.01 0.00 87 1010.1
20260905102518 61 0.0 2.0 0.00 0.01 0.00 87 1010.0
20260905101538 62 0.0 2.0 0.00 0.01 0.00 87 1010.1
20260905100518 62 0.0 1.0 0.00 0.01 0.00 87 1010.1
20260905095518 62 0.0 2.0 0.00 0.01 0.00 86 1010.1
20260905094518 62 0.0 0.0 0.00 0.01 0.00 86 1010.1
20260905093539 62 0.0 0.0 0.00 0.01 0.00 86 1010.0
20260905092518 62 0.0 0.0 0.00 0.01 0.00 86 1010.0
20260905091518 62 0.0 1.0 0.00 0.01 0.00 86 1009.8
20260905090538 62 0.0 0.0 0.00 0.01 0.00 85 1009.8
20260905085518 63 0.0 0.0 0.00 0.01 0.00 86 1009.8
20260905084518 63 0.0 1.0 0.00 0.01 0.00 86 1009.7
20260905083539 63 0.0 2.0 0.00 0.01 0.00 86 1009.8
20260905082538 63 0.0 2.0 0.00 0.01 0.00 86 1009.8
20260905081518 63 45 1.0 2.0 0.00 0.01 0.00 86 1009.8
20260905080518 63 0.0 1.0 0.00 0.01 0.00 86 1009.8
20260905075518 63 0.0 3.0 0.00 0.01 0.00 86 1009.9
20260905074518 63 0.0 2.0 0.00 0.01 0.00 86 1009.9
20260905073518 63 0.0 2.0 0.00 0.01 0.00 85 1010.0
20260905072518 63 0.0 1.0 0.00 0.01 0.00 85 1010.1
20260905071538 63 0.0 1.0 0.00 0.01 0.00 85 1010.2
20260905070518 63 0.0 0.0 0.00 0.01 0.00 84 1010.3
20260905065518 64 0.0 1.0 0.00 0.01 0.00 84 1010.2
20260905064518 64 0.0 0.0 0.00 0.01 0.00 84 1010.3
20260905063518 64 0.0 3.0 0.00 0.01 0.00 84 1010.4
20260905062518 64 0.0 0.0 0.00 0.01 0.00 83 1010.4
20260905061538 64 0.0 0.0 0.00 0.01 0.00 83 1010.6
20260905060518 64 0.0 2.0 0.00 0.01 0.00 83 1010.7
20260905055518 64 0.0 0.0 0.00 0.01 0.00 83 1010.8
20260905054518 64 0.0 1.0 0.00 0.01 0.00 82 1010.8
20260905053517 64 0.0 1.0 0.00 0.01 0.00 82 1010.8
20260905052518 64 0.0 1.0 0.00 0.01 0.00 82 1010.8
20260905051518 65 0.0 1.0 0.00 0.01 0.00 82 1010.7
20260905050518 65 0.0 3.0 0.00 0.01 0.00 82 1010.7
20260905045517 65 0.0 1.0 0.00 0.01 0.00 82 1010.6
20260905044518 65 0.0 0.0 0.00 0.01 0.00 82 1010.7
20260905043518 65 0.0 0.0 0.00 0.01 0.00 81 1010.5
20260905042518 65 0.0 0.0 0.00 0.01 0.00 81 1010.5
20260905041517 65 0.0 0.0 0.00 0.01 0.00 80 1010.7
20260905040517 65 0.0 0.0 0.00 0.01 0.00 80 1010.8
20260905035519 66 0.0 0.0 0.00 0.01 0.01 79 1010.8
20260905034519 66 0.0 0.0 0.00 0.01 0.01 78 1010.8
20260905033518 66 0.0 0.0 0.00 0.01 0.01 77 1010.7
20260905032518 67 0.0 0.0 0.00 0.01 0.01 77 1010.7
20260905031518 67 0.0 0.0 0.00 0.01 0.01 76 1010.7
20260905030518 67 0.0 0.0 0.00 0.01 0.01 75 1010.7
20260905025518 68 0.0 1.0 0.00 0.01 0.01 74 1010.6
20260905024518 68 0.0 0.0 0.00 0.01 0.01 73 1010.7
20260905023518 69 0.0 0.0 0.00 0.01 0.01 73 1010.7
20260905022518 69 0.0 0.0 0.00 0.01 0.01 72 1010.8
20260905021518 69 0.0 3.0 0.00 0.01 0.01 72 1010.9
20260905020518 70 0.0 1.0 0.00 0.01 0.01 71 1010.9
20260905015518 70 0.0 0.0 0.00 0.01 0.01 70 1010.9
20260905014538 70 0.0 2.0 0.00 0.01 0.01 70 1010.9
20260905013518 71 0.0 2.0 0.00 0.01 0.01 69 1011.0
20260905012518 71 0.0 0.0 0.00 0.01 0.01 69 1011.0
20260905011518 71 0.0 0.0 0.00 0.01 0.01 68 1011.0
20260905010518 72 0.0 0.0 0.00 0.01 0.01 67 1011.0
20260905005518 72 0.0 1.0 0.00 0.01 0.01 67 1010.9
20260905004518 73 0.0 0.0 0.00 0.01 0.01 66 1010.9
20260905003518 73 0.0 0.0 0.00 0.01 0.01 65 1010.9
20260905002518 73 315 1.0 3.0 0.00 0.01 0.01 65 1010.8
20260905001518 73 180 1.0 5.0 0.00 0.01 0.01 65 1010.7
20260905000517 73 90 1.0 4.0 0.00 0.01 0.01 66 1010.7
20260904235518 73 293 1.0 3.0 0.00 0.01 0.01 66 1010.5
20260904234518 73 90 1.0 3.0 0.00 0.01 0.01 67 1010.4
20260904233518 73 0.0 3.0 0.00 0.01 0.01 67 1010.4
20260904232538 73 0.0 3.0 0.00 0.01 0.01 68 1010.2
20260904231518 74 0.0 2.0 0.00 0.01 0.01 68 1010.1
20260904230518 74 0.0 2.0 0.00 0.01 0.01 68 1010.1
20260904225517 74 0.0 0.0 0.00 0.01 0.01 68 1010.1
20260904224517 75 0.0 1.0 0.00 0.01 0.01 67 1010.1
20260904223517 75 0.0 1.0 0.00 0.01 0.01 67 1010.1
20260904222519 76 0.0 0.0 0.00 0.01 0.01 66 1009.9
20260904221519 77 0.0 3.0 0.00 0.01 0.01 63 1009.9
20260904220519 77 0.0 2.0 0.00 0.01 0.01 64 1009.8
20260904215517 78 0.0 3.0 0.00 0.01 0.01 61 1009.9
20260904214519 79 0.0 1.0 0.00 0.01 0.01 60 1009.9
20260904213517 80 225 2.0 5.0 0.00 0.01 0.01 58 1009.9
20260904212519 79 338 1.0 4.0 0.00 0.01 0.01 60 1009.9
20260904211519 78 0.0 1.0 0.00 0.01 0.01 62 1009.9
20260904210520 78 0.0 0.0 0.00 0.01 0.01 63 1009.8
20260904205519 79 315 1.0 2.0 0.00 0.01 0.01 60 1009.7
20260904204519 79 270 1.0 3.0 0.00 0.01 0.01 60 1009.6
20260904203519 80 0.0 2.0 0.00 0.01 0.01 58 1009.8
20260904202521 81 0 1.0 6.0 0.00 0.01 0.01 55 1009.9
20260904201519 79 225 2.0 3.0 0.00 0.01 0.01 58 1009.9
20260904200519 79 248 1.0 5.0 0.00 0.01 0.01 57 1009.8
20260904195519 80 315 1.0 5.0 0.00 0.01 0.01 57 1009.9
20260904194520 81 293 1.0 5.0 0.00 0.01 0.01 54 1009.9
20260904193539 82 270 2.0 7.0 0.00 0.01 0.01 56 1009.7
20260904192539 82 293 2.0 4.0 0.00 0.01 0.01 55 1009.7
20260904191519 82 225 2.0 4.0 0.00 0.01 0.01 52 1009.6
20260904190519 83 90 1.0 7.0 0.00 0.01 0.01 52 1009.9
20260904185519 83 270 2.0 6.0 0.00 0.01 0.01 58 1010.1
20260904184519 83 293 2.0 6.0 0.00 0.01 0.01 55 1010.2
20260904183519 81 248 2.0 4.0 0.00 0.01 0.01 56 1010.0
20260904182519 83 270 1.0 4.0 0.00 0.01 0.01 53 1010.1
20260904181519 82 90 1.0 3.0 0.00 0.01 0.01 54 1010.0
20260904180519 82 315 2.0 5.0 0.00 0.01 0.01 54 1010.1
20260904175519 81 68 1.0 4.0 0.00 0.01 0.01 58 1010.2
20260904174519 81 113 2.0 4.0 0.00 0.01 0.01 54 1010.1
20260904173519 82 225 2.0 7.0 0.00 0.01 0.01 57 1010.1
20260904172519 82 203 3.0 8.0 0.00 0.01 0.01 59 1010.1
20260904171519 82 248 2.0 4.0 0.00 0.01 0.01 62 1010.1
20260904170519 81 315 2.0 6.0 0.00 0.01 0.01 63 1010.3
20260904165519 80 293 1.0 5.0 0.00 0.01 0.01 65 1010.4
20260904164520 80 225 2.0 5.0 0.00 0.01 0.01 62 1010.4
20260904163519 82 0 1.0 11.0 0.00 0.01 0.01 60 1010.6
20260904162518 81 338 2.0 6.0 0.00 0.01 0.01 64 1010.5
20260904161519 79 203 1.0 4.0 0.00 0.01 0.01 64 1010.6
20260904160519 81 113 1.0 4.0 0.00 0.01 0.01 61 1010.7
20260904155519 80 315 1.0 5.0 0.00 0.01 0.01 63 1010.8